Regional Weather Roundup
Issued by NWS Columbia, SC

Home | Current Version | Previous Version | Text Only | Print | Product List | Glossary On
Versions: 1 2 3 4 5 6 7 8 9 10 11 12 13 14 15 16 17 18 19 20 21 22 23 24 25 26 27 28 29 30 31 32 33 34 35 36 37 38 39 40 41 42 43 44 45 46 47 48 49 50
000
ASUS42 KCAE 192310
RWRCAE
REGIONAL WEATHER ROUNDUP
NATIONAL WEATHER SERVICE COLUMBIA SC
600 PM EST THU JAN 19 2017

NOTE: "FAIR" INDICATES FEW OR NO CLOUDS BELOW 12,000 FEET WITH NO
SIGNIFICANT WEATHER AND/OR OBSTRUCTIONS TO VISIBILITY.

NOT ALL STATIONS ARE QUALITY CONTROLLED BY THE NATIONAL
WEATHER SERVICE. USE DATA WITH CAUTION...ESPECIALLY
DEWPOINT OBSERVATIONS.

SCZ001>056-GAZ040-063>065-077-200000-
...UPSTATE SOUTH CAROLINA...

CITY           SKY/WX    TMP DP  RH WIND       PRES   REMARKS
ANDERSON       CLOUDY    63  39  41 E6        29.97S
LIBERTY        CLOUDY    62  39  42 CALM      29.97S
SPARTANBURG    CLOUDY    59  37  44 CALM      29.99R
CLEMSON        CLOUDY    64  40  41 NE5       29.98F
GREENVILLE     MOCLDY    63  38  39 E5        29.99S
GREENWOOD      PTCLDY    60  41  49 E5        29.99S
GREER          CLOUDY    59  40  49 CALM      29.98R
ROCK HILL      CLOUDY    61  40  45 CALM      29.99F
CHESTER        MOCLDY    59  41  51 CALM      29.99F
LAURENS        PTCLDY    61  41  48 CALM      29.99R


...CENTRAL SOUTH CAROLINA...

CITY           SKY/WX    TMP DP  RH WIND       PRES   REMARKS
COLUMBIA APT   PTCLDY    63  44  50 E5        29.99R
COLUMBIA OWENS MOCLDY    64  44  48 CALM      30.00S
MCENTIRE ANGB  MOCLDY    61  47  58 E3        29.99S
ORANGEBURG     PTCLDY    63  50  62 CALM      29.99S
SUMTER SHAW    CLOUDY    60  45  59 CALM      29.98S
NEWBERRY       PTCLDY    61  43  51 CALM      30.02R
AIKEN          FAIR      61  46  59 E5        30.02R
BARNWELL       FAIR      66  54  63 CALM      29.98S
MANNING        FAIR      59  45  58 CALM      30.00S
CAMDEN         MOCLDY    61  45  55 CALM      30.01S
LANCASTER      CLOUDY    59  43  55 CALM      29.99F
WINNSBORO      PTCLDY    61  43  51 E5        29.99S


...EASTERN AND COASTAL SOUTH CAROLINA...

CITY           SKY/WX    TMP DP  RH WIND       PRES   REMARKS
MYRTLE BEACH   PTCLDY    59  45  58 E7        30.03S
N MYRTLE BCH   PTCLDY    54  51  90 E5        30.02R
CONWAY         FAIR      55  45  67 CALM      30.02R
MARION         FAIR      55  45  67 CALM      30.01R
HARTSVILLE     CLOUDY    59  43  55 CALM      30.00R
FLORENCE       MOCLDY    60  45  57 CALM      30.01R
DARLINGTON     CLOUDY    58  47  66 CALM      30.01R
CHARLESTON APT MOCLDY    62  51  67 SE8       30.00R
MOUNT PLEASANT FAIR      59  55  88 CALM      30.01S
WALTERBORO     PTCLDY    64  54  68 SE3       29.99S
BEAUFORT       PTCLDY    62  56  80 E7        30.00R


...EASTERN GEORGIA...

CITY           SKY/WX    TMP DP  RH WIND       PRES   REMARKS
AUGUSTA BUSH F PTCLDY    67  47  48 E5        29.96R
AUGUSTA DANIEL CLOUDY    71  43  36 E3        29.97S
THOMSON        PTCLDY    65  51  58 CALM      30.00S
WASHINGTON     FAIR      63  50  63 E3        29.95F
CLAXTON        FAIR     N/A N/A N/A CALM      29.97S
SYLVANIA       MOCLDY   N/A N/A N/A SE3       29.98S
STATESBORO     HAZE      66  61  84 CALM      29.96F VSB 3/4
SAVANNAH       MOCLDY    63  55  75 SE7       29.99S


...SOUTHERN NORTH CAROLINA...

CITY           SKY/WX    TMP DP  RH WIND       PRES   REMARKS
CHARLOTTE      MOCLDY    61  37  41 S5        29.99S
MONROE         MOCLDY    57  39  51 CALM      29.99R
WADESBORO      PTCLDY    53  44  72 CALM      30.00S
ROCKINGHAM     CLOUDY    57  43  59 CALM      30.00S
RUTHERFORDTON  CLOUDY    58  38  46 CALM      30.00S
ASHEVILLE      PTCLDY    56  33  42 S7        29.99S

$$



USA.gov is the U.S. government's official web portal to all federal, state and local government web resources and services.